Dewpoint
41 40 38 36 35 34 32 33 33 33 34 32 30 28 27 26 27 28 28 28 28 26
40 39 37 37 35 33 33 33 33 32 32 30 28 26 26 25 26 26 26 27 27 25
38 37 37 35 34 33 32 32 32 30 28 27 26 25 22 22 24 23 22 23 21 20
36 35 35 34 34 32 32 32 31 28 27 25 22 21 20 21 21 20 19 19 18 19
35 35 34 34 33 33 33 32 31 29 24 22 20 17 18 17 18 17 16 16 16 17
35 35 35 34 33 33 34 32 29 26 23 21 19 15 17 17 17 17 15 14 15 17
35 35 34 34 34 34 31 28 26 24 23 21 18 14 14 15 15 14 14 14 15 16
33 33 33 33 32 29 28 26 24 23 21 21 19 15 15 15 13 11 11 11 10 15
33 33 33 30 28 27 26 24 22 19 19 19 16 17 16 15 11 8 6 4 8 9
33 32 29 26 25 24 23 22 20 18 18 19 18 18 16 15 10 7 5 3 5 3
31 28 26 24 22 20 20 18 16 16 18 19 18 17 14 14 9 6 5 3 5 5
30 27 24 23 26 25 17 14 13 14 16 17 18 17 14 13 10 7 3 3 6 7
30 28 27 27 24 18 14 11 8 10 15 17 17 19 16 15 14 14 11 7 6 11
29 28 26 25 20 13 10 8 10 12 14 16 17 16 15 15 17 16 13 12 13 13
Wind_Speed
19 16 17 16 14 12 10 10 10 11 10 9 8 9 8 6 7 7 8 8 6 5
18 17 16 17 17 13 14 12 10 12 11 7 9 8 7 7 8 7 7 6 5 5
19 18 18 18 16 14 14 14 14 12 9 8 8 7 8 7 6 6 6 4 5 4
20 19 18 18 17 15 13 14 14 11 8 8 7 7 8 9 7 7 6 4 5 5
23 22 20 19 17 14 12 13 12 10 8 8 7 7 8 8 7 7 5 4 4 4
20 20 19 18 16 13 13 13 11 10 8 8 8 7 8 7 7 6 5 4 5 5
19 19 18 17 15 14 14 13 11 9 9 8 8 7 7 7 7 6 6 6 6 6
16 16 17 16 16 14 14 12 11 11 9 9 7 5 7 8 7 6 6 5 4 6
19 19 19 18 17 16 13 12 11 10 9 9 8 8 6 4 6 6 5 4 2 2
19 21 21 20 17 15 14 13 12 11 10 10 10 8 6 3 6 5 5 3 3 3
22 21 20 19 18 16 13 13 12 11 9 9 10 8 5 4 6 5 5 5 4 3
22 22 21 19 17 16 14 12 12 12 10 9 11 8 4 4 5 4 5 3 2 4
22 22 21 18 16 13 14 14 11 11 10 8 11 9 6 1 4 3 1 1 1 4
21 21 20 18 16 15 14 14 13 12 11 11 9 9 7 3 4 2 2 2 2 3
Wind_Direction
145 145 143 149 145 144 142 134 128 114 111 115 105 93 96 100 86 80 71 63 54 57
135 137 143 138 138 137 133 132 127 111 114 118 110 103 101 89 91 91 85 80 72 64
125 122 127 130 128 135 134 136 123 117 119 119 103 111 102 99 92 94 83 81 81 68
121 125 126 122 124 130 138 128 118 122 125 102 101 98 98 95 96 89 85 85 76 71
125 124 121 119 122 126 133 119 123 132 129 115 95 84 96 99 96 97 93 79 72 60
128 124 128 126 129 139 137 135 141 134 127 113 100 91 96 103 102 107 95 81 67 48
133 133 131 132 139 147 144 143 139 133 126 113 103 96 114 117 114 108 86 68 58 44
134 133 134 139 142 141 150 138 140 142 132 125 114 99 128 122 111 100 93 71 66 60
141 140 143 140 144 152 141 146 151 138 139 126 104 92 47 103 117 115 104 87 76 106
148 150 148 150 151 139 149 153 152 152 149 131 114 93 93 313 108 101 94 78 52 38
159 152 149 150 146 145 157 156 155 152 145 128 110 104 105 274 108 109 90 60 32 347
154 151 152 150 146 151 156 158 157 159 157 140 134 115 123 248 130 110 94 94 90 341
145 150 150 145 141 151 164 156 154 152 156 135 132 136 94 6 118 106 136 183 278 139
141 144 140 139 150 159 164 152 152 150 152 168 136 120 94 105 145 147 199 233 272 335